Last 48 Hours

Stanford Met Tower

Hourly Data | America/Los_Angeles
as of 2/21/24 9:53 AM PST
Date & Time Temp (°F) RH (%) Dew Pt (°F) Wind Dir (°) Wind Spd (mph) Wind Gust (mph) Solar Rad (W/m2) Pressure (mb) NowCast AQI Value (AQI) NowCast AQI Status Latest Rain (In) Daily Rain (In) Daily Min Temp (°F) Daily Max Temp (°F)
2/21/24 - 0900 48.9 98 48.4 SSW | 204 1.6 4.7 262 1,025.1 12 Good 0.00 0.00 41.2 51.8
2/21/24 - 0800 44.3 98 43.7 SW | 215 4.2 7.8 33 1,024.5 9 Good 0.00 0.00 41.2 48.9
2/21/24 - 0700 42.0 98 41.5 SSW | 212 4.1 6.6 2 1,024.1 7 Good 0.00 0.00 41.2 48.9
2/21/24 - 0600 42.3 98 41.8 SSW | 207 3.0 7.6 0 1,023.8 8 Good 0.00 0.00 41.6 48.9
2/21/24 - 0500 43.7 98 43.2 SSW | 197 4.1 5.7 0 1,023.5 9 Good 0.00 0.00 43.1 48.9
2/21/24 - 0400 44.2 98 43.7 SSW | 212 3.1 6.9 0 1,023.3 11 Good 0.00 0.00 43.3 48.9
2/21/24 - 0300 45.1 98 44.6 WSW | 240 3.0 6.2 0 1,023.0 15 Good 0.00 0.00 44.3 48.9
2/21/24 - 0200 46.6 98 46.1 WSW | 256 2.6 8.1 0 1,022.7 22 Good 0.00 0.00 45.5 48.9
2/21/24 - 0100 48.1 98 47.6 SSW | 210 3.9 7.1 0 1,022.4 27 Good 0.00 0.00 47.0 48.9
2/21/24 - 0000 49.1 98 48.6 SW | 217 2.7 6.7 0 1,022.3 33 Good 0.00 0.20 48.4 63.1
2/20/24 - 2300 50.0 98 49.5 SW | 223 2.7 6.3 0 1,022.3 32 Good 0.00 0.20 49.5 63.1
2/20/24 - 2200 50.3 98 49.8 W | 270 1.3 3.5 0 1,022.2 24 Good 0.00 0.20 49.7 63.1
2/20/24 - 2100 51.7 97 51.0 W | 271 0.9 3.0 0 1,021.7 18 Good 0.00 0.20 50.2 63.1
2/20/24 - 2000 53.0 97 52.2 NNW | 332 1.4 5.7 0 1,021.2 14 Good 0.00 0.20 50.2 63.1
2/20/24 - 1900 52.6 96 51.6 S | 181 1.5 4.4 0 1,020.8 10 Good 0.00 0.20 50.2 63.1
2/20/24 - 1800 53.0 93 51.1 SSE | 164 2.0 4.1 16 1,020.4 10 Good 0.00 0.20 50.2 63.1
2/20/24 - 1700 54.4 90 51.5 E | 97 5.0 11.7 92 1,020.6 10 Good 0.00 0.20 50.2 63.1
2/20/24 - 1600 55.1 88 51.7 SSW | 196 5.9 16.2 190 1,020.6 10 Good 0.00 0.20 50.2 63.1
2/20/24 - 1500 52.5 94 50.7 SW | 235 2.7 10.9 66 1,021.1 17 Good 0.09 0.20 50.2 63.1
2/20/24 - 1400 56.4 82 50.8 SW | 230 7.5 20.8 26 1,020.8 28 Good 0.10 0.11 50.2 63.1
2/20/24 - 1300 61.3 65 49.6 S | 169 3.6 9.1 90 1,020.4 30 Good 0.00 0.01 50.2 63.1
2/20/24 - 1200 62.3 65 50.5 SSE | 149 5.1 13.4 260 1,020.9 35 Good 0.00 0.01 50.2 63.1
2/20/24 - 1100 59.7 78 52.7 SE | 126 4.2 9.1 276 1,021.4 43 Good 0.00 0.01 50.2 61.7
2/20/24 - 1000 55.5 91 52.9 ESE | 105 3.9 8.0 205 1,022.0 43 Good 0.00 0.01 50.2 58.4
2/20/24 - 0900 52.3 97 51.4 SE | 125 2.1 6.2 78 1,022.1 39 Good 0.00 0.01 50.2 58.1
2/20/24 - 0800 50.8 96 49.8 SE | 131 2.7 7.4 44 1,021.4 39 Good 0.00 0.01 50.2 58.1
2/20/24 - 0700 51.8 95 50.5 SE | 125 3.8 7.5 2 1,020.9 40 Good 0.00 0.01 51.1 58.1
2/20/24 - 0600 53.1 94 51.3 ESE | 111 1.7 5.6 1 1,020.6 41 Good 0.00 0.01 52.4 58.1
2/20/24 - 0500 54.6 91 52.0 SE | 142 2.8 8.1 1 1,020.1 44 Good 0.00 0.01 53.9 58.1
2/20/24 - 0400 55.7 86 51.8 SE | 134 4.2 7.9 0 1,019.8 44 Good 0.01 0.01 55.0 58.1
2/20/24 - 0300 56.9 81 51.2 SE | 142 5.7 10.0 0 1,019.8 46 Good 0.00 0.00 56.4 58.1
2/20/24 - 0200 57.0 82 51.5 SE | 138 6.5 13.4 0 1,019.9 51 Moderate 0.00 0.00 56.5 58.1
2/20/24 - 0100 57.0 83 51.8 SE | 131 5.9 13.4 0 1,019.8 51 Moderate 0.00 0.00 56.5 58.0
2/20/24 - 0000 56.7 84 51.8 SE | 129 6.0 14.4 0 1,019.7 53 Moderate 0.00 0.79 54.1 63.4
2/19/24 - 2300 55.6 89 52.5 ESE | 118 6.0 12.2 0 1,019.4 55 Moderate 0.00 0.79 54.1 63.4
2/19/24 - 2200 54.9 93 52.9 ESE | 119 5.5 10.9 0 1,019.1 56 Moderate 0.00 0.79 54.1 63.4
2/19/24 - 2100 55.9 91 53.3 SE | 134 5.1 14.0 1 1,018.5 58 Moderate 0.01 0.79 54.1 63.4
2/19/24 - 2000 56.3 89 53.1 SSE | 159 5.4 17.9 0 1,017.8 59 Moderate 0.01 0.78 54.1 63.4
2/19/24 - 1900 56.8 88 53.2 S | 182 6.6 21.9 0 1,017.0 57 Moderate 0.02 0.77 54.1 63.4
2/19/24 - 1800 56.1 93 54.1 S | 182 7.9 20.5 13 1,016.5 51 Moderate 0.28 0.75 54.1 63.4
2/19/24 - 1700 57.6 89 54.4 SSW | 209 9.0 24.7 91 1,015.9 51 Moderate 0.20 0.47 54.1 63.4
2/19/24 - 1600 58.1 88 54.5 SSW | 211 11.1 29.7 116 1,014.9 51 Moderate 0.09 0.27 54.1 63.4
2/19/24 - 1500 58.5 86 54.4 SSW | 208 11.5 29.2 143 1,014.3 44 Good 0.07 0.18 54.1 63.4
2/19/24 - 1400 59.9 83 54.8 SSW | 205 13.3 28.8 345 1,013.8 37 Good 0.03 0.11 54.1 63.4
2/19/24 - 1300 60.9 80 54.8 SSW | 208 14.2 34.9 487 1,013.5 33 Good 0.03 0.08 54.1 63.4
2/19/24 - 1200 61.8 75 53.9 SSW | 204 16.3 36.0 633 1,013.4 27 Good 0.01 0.05 54.1 63.4
2/19/24 - 1100 62.1 73 53.4 SSW | 199 15.5 36.3 567 1,013.0 26 Good 0.00 0.04 54.1 63.4
2/19/24 - 1000 61.8 71 52.3 S | 190 13.6 31.9 466 1,012.8 26 Good 0.00 0.04 54.1 62.8
2/19/24 - 0900 59.2 78 52.2 S | 181 11.5 29.7 255 1,012.7 29 Good 0.01 0.04 54.1 61.2
Max 62.3 98 54.8 - 16.3 36.3 633 1,025.1 59 - 0.28 0.79 56.5 63.4
Avg 54.0 89 50.6 - 5.6 13.6 97 1,019.7 32 - 0.02 - - -
Min 42.0 65 41.5 - 0.9 3.0 0 1,012.7 7 - 0.00 0.00 41.2 48.9
Total - - - - - - - - - - 0.96 - - -